When you browse on this site, cookies collect data to enhance your experience and personalize the content and advertising you see.
Visit our Privacy Policy to learn more. By continuing to use the site, you agree to this use of cookies and data.
EN

Hourly Weather Golabki

Today, 21 September, Monday

Time Temperature Precipitation Wind Pressure Humidity
00:00 +12°C° 0 mm 1 mps 761 mmHg 87%
01:00 +12°C° 0 mm 2 mps 761 mmHg 88%
02:00 +12°C° 0 mm 1 mps 761 mmHg 88%
03:00 +11°C° 0 mm 1 mps 761 mmHg 87%
04:00 +11°C° 0 mm 1 mps 761 mmHg 87%
05:00 +12°C° 0 mm 1 mps 761 mmHg 83%
06:00 +12°C° 0 mm 2 mps 761 mmHg 78%
07:00 +13°C° 0 mm 2 mps 761 mmHg 70%
08:00 +15°C° 0 mm 2 mps 761 mmHg 62%
09:00 +17°C° 0 mm 2 mps 761 mmHg 54%
10:00 +19°C° 0 mm 2 mps 761 mmHg 46%
11:00 +20°C° 0 mm 2 mps 761 mmHg 42%
12:00 +21°C° 0 mm 2 mps 761 mmHg 38%
13:00 +23°C° 0 mm 2 mps 761 mmHg 34%
14:00 +23°C° 0 mm 2 mps 760 mmHg 40%
15:00 +22°C° 0 mm 1 mps 760 mmHg 45%
16:00 +22°C° 0 mm 1 mps 759 mmHg 51%
17:00 +20°C° 0 mm 1 mps 759 mmHg 56%
18:00 +18°C° 0 mm 1 mps 759 mmHg 61%
19:00 +15°C° 0 mm 1 mps 759 mmHg 65%
20:00 +15°C° 0 mm 2 mps 759 mmHg 67%
21:00 +15°C° 0 mm 2 mps 758 mmHg 68%
22:00 +14°C° 0 mm 2 mps 758 mmHg 70%
23:00 +14°C° 0 mm 2 mps 758 mmHg 71%

Tomorrow, 22 September, Tuesday

Time Temperature Precipitation Wind Pressure Humidity
00:00 +14°C° 0 mm 2 mps 758 mmHg 72%
01:00 +13°C° 0 mm 2 mps 758 mmHg 73%
02:00 +13°C° 0 mm 2 mps 758 mmHg 74%
03:00 +12°C° 0 mm 2 mps 757 mmHg 76%
04:00 +12°C° 0 mm 2 mps 757 mmHg 78%
05:00 +13°C° 0 mm 2 mps 757 mmHg 76%
06:00 +14°C° 0 mm 2 mps 757 mmHg 74%
07:00 +14°C° 0 mm 2 mps 757 mmHg 72%
08:00 +17°C° 0 mm 3 mps 757 mmHg 66%
09:00 +19°C° 0 mm 3 mps 757 mmHg 60%
10:00 +21°C° 0 mm 3 mps 757 mmHg 54%
11:00 +24°C° 0 mm 3 mps 756 mmHg 50%
12:00 +25°C° 0 mm 4 mps 756 mmHg 46%
13:00 +26°C° 0 mm 4 mps 756 mmHg 42%
14:00 +26°C° 0 mm 4 mps 755 mmHg 45%
15:00 +26°C° 0 mm 3 mps 755 mmHg 48%
16:00 +25°C° 0 mm 3 mps 754 mmHg 50%
17:00 +24°C° 0 mm 3 mps 754 mmHg 53%
18:00 +21°C° 0 mm 4 mps 754 mmHg 57%
19:00 +19°C° 0 mm 4 mps 754 mmHg 60%
20:00 +19°C° 0 mm 4 mps 753 mmHg 61%
21:00 +19°C° 0 mm 4 mps 753 mmHg 61%
22:00 +18°C° 0 mm 4 mps 753 mmHg 62%
23:00 +18°C° 0 mm 4 mps 753 mmHg 63%

Day after tomorrow, 23 September, Wednesday

Time Temperature Precipitation Wind Pressure Humidity
00:00 +18°C° 0 mm 4 mps 753 mmHg 64%
01:00 +17°C° 0 mm 4 mps 752 mmHg 65%
02:00 +17°C° 0 mm 4 mps 752 mmHg 66%
03:00 +15°C° 0 mm 4 mps 752 mmHg 67%
04:00 +15°C° 0 mm 4 mps 752 mmHg 69%
05:00 +15°C° 0 mm 4 mps 752 mmHg 68%
06:00 +17°C° 0 mm 4 mps 752 mmHg 68%
07:00 +17°C° 0 mm 4 mps 752 mmHg 67%
08:00 +19°C° 0 mm 4 mps 752 mmHg 62%
09:00 +21°C° 0 mm 4 mps 751 mmHg 56%
10:00 +23°C° 0 mm 4 mps 751 mmHg 51%
11:00 +25°C° 0 mm 4 mps 751 mmHg 47%
12:00 +26°C° 0 mm 4 mps 751 mmHg 44%
13:00 +27°C° 0 mm 4 mps 751 mmHg 40%
14:00 +27°C° 0 mm 3 mps 751 mmHg 44%
15:00 +27°C° 0 mm 3 mps 750 mmHg 47%
16:00 +26°C° 0 mm 2 mps 750 mmHg 51%
17:00 +25°C° 0 mm 2 mps 750 mmHg 55%
18:00 +23°C° 0 mm 2 mps 750 mmHg 60%
19:00 +20°C° 0 mm 2 mps 750 mmHg 64%
20:00 +20°C° 0 mm 2 mps 750 mmHg 67%
21:00 +19°C° 0 mm 2 mps 750 mmHg 69%
22:00 +18°C° 0 mm 2 mps 750 mmHg 72%
23:00 +18°C° 0 mm 2 mps 750 mmHg 74%

24 September, Thursday

Time Temperature Precipitation Wind Pressure Humidity
00:00 +18°C° 0 mm 2 mps 750 mmHg 75%
01:00 +18°C° 0 mm 2 mps 750 mmHg 77%
02:00 +17°C° 0 mm 2 mps 750 mmHg 78%
03:00 +17°C° 0 mm 2 mps 750 mmHg 80%
04:00 +17°C° 0 mm 2 mps 749 mmHg 81%
05:00 +17°C° 0 mm 3 mps 750 mmHg 81%
06:00 +17°C° 0 mm 3 mps 750 mmHg 81%
07:00 +18°C° 0 mm 3 mps 750 mmHg 81%
08:00 +19°C° 0.1 mm 3 mps 750 mmHg 75%
09:00 +21°C° 0.1 mm 4 mps 750 mmHg 69%
10:00 +23°C° 0.1 mm 4 mps 750 mmHg 63%
11:00 +25°C° 0 mm 4 mps 750 mmHg 56%
12:00 +26°C° 0 mm 4 mps 750 mmHg 49%
13:00 +26°C° 0 mm 4 mps 751 mmHg 43%
14:00 +26°C° 0 mm 4 mps 751 mmHg 46%
15:00 +25°C° 0 mm 3 mps 750 mmHg 49%
16:00 +25°C° 0 mm 2 mps 750 mmHg 52%
17:00 +23°C° 0 mm 2 mps 751 mmHg 56%
18:00 +20°C° 0 mm 2 mps 751 mmHg 61%
19:00 +19°C° 0 mm 2 mps 751 mmHg 66%
20:00 +18°C° 0 mm 2 mps 751 mmHg 69%
21:00 +18°C° 0 mm 2 mps 751 mmHg 72%
22:00 +17°C° 0 mm 2 mps 751 mmHg 76%
23:00 +17°C° 0 mm 2 mps 751 mmHg 77%

25 September, Friday

Time Temperature Precipitation Wind Pressure Humidity
00:00 +17°C° 0 mm 2 mps 751 mmHg 79%
01:00 +17°C° 0 mm 2 mps 751 mmHg 80%
02:00 +16°C° 0 mm 2 mps 751 mmHg 80%
03:00 +16°C° 0 mm 2 mps 751 mmHg 80%
04:00 +16°C° 0 mm 2 mps 751 mmHg 79%
05:00 +16°C° 0 mm 3 mps 750 mmHg 78%
06:00 +17°C° 0 mm 3 mps 750 mmHg 77%
07:00 +17°C° 0 mm 4 mps 750 mmHg 76%
08:00 +20°C° 0 mm 4 mps 749 mmHg 69%
09:00 +22°C° 0 mm 5 mps 749 mmHg 63%
10:00 +24°C° 0 mm 6 mps 749 mmHg 56%
11:00 +24°C° 0 mm 6 mps 748 mmHg 55%
12:00 +26°C° 0 mm 6 mps 747 mmHg 54%
13:00 +26°C° 0 mm 7 mps 746 mmHg 53%
14:00 +26°C° 0 mm 6 mps 746 mmHg 56%
15:00 +24°C° 0 mm 6 mps 745 mmHg 58%
16:00 +25°C° 0 mm 5 mps 744 mmHg 61%
17:00 +23°C° 0.1 mm 5 mps 744 mmHg 63%
18:00 +22°C° 0.1 mm 5 mps 743 mmHg 66%
19:00 +21°C° 0.1 mm 5 mps 743 mmHg 68%
20:00 +21°C° 0.1 mm 6 mps 743 mmHg 72%
21:00 +20°C° 0.1 mm 6 mps 743 mmHg 75%
22:00 +20°C° 0.1 mm 7 mps 742 mmHg 79%
23:00 +18°C° 0.2 mm 7 mps 742 mmHg 81%

26 September, Saturday

Time Temperature Precipitation Wind Pressure Humidity
00:00 +19°C° 0.2 mm 6 mps 742 mmHg 82%
01:00 +19°C° 0.2 mm 6 mps 742 mmHg 84%
02:00 +17°C° 1.3 mm 6 mps 742 mmHg 86%
03:00 +16°C° 1.3 mm 6 mps 743 mmHg 87%
04:00 +15°C° 1.3 mm 7 mps 743 mmHg 88%
05:00 +15°C° 0.4 mm 6 mps 744 mmHg 88%
06:00 +14°C° 0.4 mm 5 mps 745 mmHg 88%
07:00 +13°C° 0.4 mm 5 mps 746 mmHg 87%
08:00 +13°C° 0 mm 4 mps 746 mmHg 85%
09:00 +13°C° 0 mm 3 mps 747 mmHg 83%
10:00 +14°C° 0 mm 2 mps 748 mmHg 80%
11:00 +15°C° 0 mm 2 mps 749 mmHg 77%
12:00 +15°C° 0 mm 2 mps 749 mmHg 73%
13:00 +16°C° 0 mm 1 mps 750 mmHg 69%
14:00 +16°C° 0 mm 1 mps 750 mmHg 67%
15:00 +16°C° 0 mm 1 mps 750 mmHg 66%
16:00 +18°C° 0 mm 1 mps 750 mmHg 65%
17:00 +16°C° 0 mm 2 mps 751 mmHg 68%
18:00 +15°C° 0 mm 2 mps 751 mmHg 72%
19:00 +13°C° 0 mm 3 mps 751 mmHg 75%
20:00 +13°C° 0 mm 3 mps 751 mmHg 76%
21:00 +13°C° 0 mm 4 mps 750 mmHg 76%
22:00 +13°C° 0 mm 4 mps 750 mmHg 77%
23:00 +13°C° 1.2 mm 5 mps 749 mmHg 82%
Show more